Simultaneous Nadir Overpasses (SNOs) Predictions

Prediction of SNOs between AQUA and METOP-C Satellite Orbit:

Table of predicted SNOs for the next 14.0 days since TLE Epoch: 3/29/2025
Index Date (AQUA) Time (AQUA) Lat,Lon (AQUA) SZA (AQUA ) Date (METOP-C) Time (METOP-C) Lat,Lon (METOP-C) SZA (METOP-C ) Distance(km) Time Diff (sec)
1 03/31/2025 13:23:16 76.35, -19.06 71.89 03/31/2025 13:22:19 76.35, -19.18 71.89 3.12 57
2 03/31/2025 14:12:35 -76.40, 148.44 108.08 03/31/2025 14:13:00 -76.39, 148.31 108.09 3.48 25
3 04/03/2025 02:12:04 76.38, 148.68 70.95 04/03/2025 02:11:12 76.36, 148.63 70.92 2.96 52
4 04/03/2025 03:01:23 -76.43, -43.82 109.02 04/03/2025 03:01:52 -76.45, -43.71 109.00 3.30 29
5 04/05/2025 15:00:50 76.38, -43.43 69.98 04/05/2025 15:00:05 76.40, -43.44 70.00 2.63 45
6 04/05/2025 15:50:09 -76.43, 124.07 109.99 04/05/2025 15:50:46 -76.45, 124.05 109.97 2.18 37
7 04/08/2025 03:49:35 76.43, 124.28 69.08 04/08/2025 03:48:58 76.43, 124.43 69.08 4.10 37
8 04/08/2025 04:38:54 -76.48, -68.22 110.89 04/08/2025 04:39:39 -76.48, -68.07 110.89 3.99 45
9 04/10/2025 16:38:17 76.44, -67.87 68.15 04/10/2025 16:37:51 76.45, -67.74 68.16 3.45 26



Historial Predications of SNOs between AQUA and METOP-C
